Regional Weather Roundup
Issued by NWS

Home | Current Version | Previous Version | Text Only | Print | Product List | Glossary Off
Versions: 1 2 3 4 5 6 7 8 9 10 11 12 13 14 15 16 17 18 19 20 21 22 23 24 25 26 27 28 29 30 31 32 33 34 35 36 37 38 39 40 41 42 43 44 45 46 47 48 49 50

474
ASUS43 KMPX 210910
RWRMN
WEATHER ROUNDUP FOR MINNESOTA
NATIONAL WEATHER SERVICE TWIN CITIES/CHANHASSEN MN
300 AM CST SAT JAN 21 2017


NOTE: "FAIR" INDICATES FEW OR NO CLOUDS BELOW 12,000 FEET WITH NO
SIGNIFICANT WEATHER AND/OR OBSTRUCTIONS TO VISIBILITY. N/A MEANS
CURRENT SKY AND/OR WEATHER CONDITIONS ARE NOT AVAILABLE.

MNZ060>063-068>070-211000-
   Twin Cities Metro

CITY           SKY/WX    TMP DP  RH WIND       PRES   REMARKS
TWIN CITIES    CLOUDY    35  34  96 SE8       29.49F FOG     WCI  29
ST PAUL        CLOUDY    35  35 100 SE6       29.50F FOG     WCI  30
CRYSTAL        FOG       35  33  92 E6        29.47F VSB 3/4 WCI  30
BLAINE         FOG       37  37 100 SE6       29.49F VSB 1/2
LAKEVILLE      FOG       32  32 100 E8        29.47F VSB 1/4 WCI  25
EDEN PRAIRIE   CLOUDY    35  34  96 E7        29.46F FOG     WCI  29
SOUTH ST PAUL  CLOUDY    36  36 100 SE5       29.49F FOG
LAKE ELMO      FOG       34  34 100 E6        29.50F VSB 1/2 WCI  29
$$
MNZ001>005-007-008-013>017-022>024-027-028-211000-
   Northwest Minnesota

CITY           SKY/WX    TMP DP  RH WIND       PRES   REMARKS
BEMIDJI        CLOUDY    33  33 100 E7        29.46F WCI  27
HALLOCK        CLOUDY    36  34  93 SE9       29.43S
ROSEAU         CLOUDY    36  30  80 SE8       29.47S FOG
WARROAD        CLOUDY    36  30  80 SE8       29.48S
THIEF RVR FALL CLOUDY    35  33  92 SE12      29.44F WCI  27
CROOKSTON      CLOUDY    36  34  93 SE8       29.43S
FOSSTON        CLOUDY    34  32  93 E9        29.44S WCI  26
DETROIT LAKES  CLOUDY    34  34 100 SE10      29.44S FOG     WCI  26
MOORHEAD       CLOUDY    34  34 100 SE7       29.43S WCI  28
PARK RAPIDS    CLOUDY    34  32  92 SE7       29.45F FOG     WCI  28
MAHNOMEN       CLOUDY    34  33  94 SE10      29.43S WCI  26
$$
MNZ006-009>011-018-025>026-211000-
   North Central Minnesota

CITY           SKY/WX    TMP DP  RH WIND       PRES   REMARKS
BAUDETTE       CLOUDY    34  33  96 SE7       29.49S FOG     WCI  28
FLAG ISLAND    CLOUDY    34  32  93 SE5       29.49S FOG     WCI  30
INTL FALLS     LGT SNOW  33  31  92 SE7       29.52F FOG     WCI  27
WASKISH        CLOUDY    36  34  93 SE8       29.49S
BIG FORK       CLOUDY    34  34 100 E3        29.51S FOG
LONGVILLE      CLOUDY    34  34 100 CALM      29.47F FOG
GRAND RAPIDS   FOG       33  33 100 E6        29.51F VSB 1/2 WCI  28
CRANE LAKE     CLOUDY    30  30 100 CALM      29.56F
ORR            CLOUDY    32  30  93 CALM      29.50F
COOK           CLOUDY    34  32  93 E3        29.53F
WALKER         CLOUDY    32  32  99 SE3       29.47S FOG
$$
MNZ012-019>021-037-211000-
   Northeast Minnesota

CITY           SKY/WX    TMP DP  RH WIND       PRES   REMARKS
DULUTH         DRZL/FOG  34  34 100 E8        29.52F VSB 1/8 WCI  27
ELY            CLOUDY    34  34 100 CALM      29.54F
HIBBING        CLOUDY    32  32 100 SE6       29.51F FOG     WCI  26
EVELETH        CLOUDY    33  33  99 E3        29.53F
DULUTH HARBOR  MIX PCPN  34  34 100 CALM      29.56F
TWO HARBORS    DRZL/FOG  37  32  81 E3        29.53F VSB 1/2
SILVER BAY     FOG       36  36 100 E3        29.55S VSB<1/4
GRAND MARAIS     N/A     36  35  96 NE9       29.60F
G MARAIS ARPRT MIX PCPN  30  28  93 E7        29.56F WCI  23
$$
MNZ029>031-032-039>041-046>048-054>057-064-211000-
   West Central Minnesota

CITY           SKY/WX    TMP DP  RH WIND       PRES   REMARKS
FERGUS FALLS   CLOUDY    36  36 100 SE9       29.46F
WHEATON        CLOUDY    39  39 100 SE15      29.43F FOG
MORRIS         CLOUDY    34  34 100 SE12      29.41F FOG     WCI  25
ALEXANDRIA     FOG       33  33 100 SE9       29.45R VSB 3/4 WCI  25
ELBOW LAKE     CLOUDY    33  33 100 SE9       29.42F FOG     WCI  26
WADENA         CLOUDY    32  32 100 E7        29.44F FOG     WCI  26
GLENWOOD       MIX PCPN  34  34 100 SE7       29.45S VSB 1/4 WCI  28
APPLETON       CLOUDY    36  34  93 E9        29.41F FOG
BENSON         CLOUDY    37  34  87 SE10      29.44F
ORTONVILLE     CLOUDY    34  32  93 CALM      29.40F FOG
MADISON        CLOUDY    36  36 100 SE12      29.40S FOG
WILLMAR        CLOUDY    36  36 100 E9        29.45F FOG
$$
MNZ033>034-036-042>043-049>051-058-059-211000-
   Central Minnesota

CITY           SKY/WX    TMP DP  RH WIND       PRES   REMARKS
ST CLOUD       FOG       34  34 100 SE6       29.47F VSB 1/4 WCI  29
SAUK CENTRE    LGT RAIN  33  33 100 E8        29.46S VSB 1   WCI  26
PAYNESVILLE    DRIZZLE   33  34 100 E6        29.46F WCI  28
AITKIN         FOG       36  32  87 E3        29.48S VSB 3/4
PINE RIVER     CLOUDY    34  34 100 SE6       29.52S FOG     WCI  29
BRAINERD       FOG       33  33 100 E6        29.48F VSB 1/2 WCI  28
STAPLES        CLOUDY    34  34 100 SE5       29.46F FOG     WCI  30
LONG PRAIRIE   SNOW      32  32 100 E6        29.46S VSB 1/2 WCI  26
LITTLE FALLS   CLOUDY    32  32 100 E5        29.47F FOG     WCI  27
LITCHFIELD     SNOW      36  36 100 E6        29.46F VSB 1/4
BUFFALO        FOG       34  33  96 E5        29.48F VSB 3/4 WCI  30
MAPLE LAKE     FOG       35  35 100 MISG      29.48F VSB 1/2
HUTCHINSON     SNOW      34  35 100 E7        29.46F VSB 1/2 WCI  28
$$
MNZ037-044-045-052-053-211000-
   East Central Minnesota

CITY           SKY/WX    TMP DP  RH WIND       PRES   REMARKS
PRINCETON      FOG       36  34  93 E3        29.49F VSB 1/2
MORA           FOG       32  32 100 E3        29.51F VSB 1/2
CAMBRIDGE      FOG       36  36 100 CALM      29.48F VSB 3/4
RUSH CITY      CLOUDY    34  34 100 E3        29.50F FOG
MOOSE LAKE     FOG       34  32  93 CALM      29.49F VSB 1/2
HINCKLEY       FOG       34  34 100 E5        29.50F VSB 1/2 WCI  30
CLOQUET        FOG       34  34 100 E5        29.52F VSB 1/4 WCI  30
MCGREGOR       CLOUDY    34  34 100 E5        29.50F VSB 1/2 WCI  30
$$
MNZ071>073-080-081-089-090-097-098-211000-
   Southwest Minnesota

CITY           SKY/WX    TMP DP  RH WIND       PRES   REMARKS
MONTEVIDEO     DRZL/FOG  34  34 100 SE9       29.43F VSB 1   WCI  26
GRANITE FALLS  CLOUDY    36  35  98 E6        29.43F FOG
CANBY          CLOUDY    35  35 100 CALM      29.40S FOG
MARSHALL       CLOUDY    34  34 100 E6        29.40F FOG     WCI  29
REDWOOD FALLS  FOG       35  33  92 E6        29.42F VSB 1/2 WCI  30
OLIVIA         FOG       34  34 100 E8        29.42F VSB 3/4 WCI  27
PIPESTONE      FOG       36  36 100 SE6       29.35F VSB 1/2
WINDOM         FOG       34  34 100 E5        29.40F VSB 1/2 WCI  30
WORTHINGTON    FOG       34  33  96 E8        29.39  VSB 3/4 WCI  27
JACKSON        FOG       32  32 100 E8        29.40F VSB 1/2 WCI  25
TRACY          CLOUDY    36  35  99 SE6       29.40S FOG
SLAYTON        FOG       33  33 100 SE6       29.39F VSB 1/2 WCI  27
$$
MNZ065>067-074>077-082>085-091>093-211000-
   South Central Minnesota

CITY           SKY/WX    TMP DP  RH WIND       PRES   REMARKS
MANKATO        CLOUDY    35  34  96 E10       29.44F FOG     WCI  27
NEW ULM        FOG       34  34 100 E7        29.43F VSB 1/2 WCI  28
ST JAMES       FOG       34  34 100 E6        29.43F VSB 1/2 WCI  29
FAIRMONT       LGT RAIN  34  34 100 E7        29.41F VSB 3/4 WCI  28
GLENCOE        FOG       35  35 100 E8        29.45F VSB 1/2 WCI  28
OWATONNA       CLOUDY    36  34  93 E9        29.45F FOG
WASECA         CLOUDY    34  34 100 E9        29.45F FOG     WCI  26
ALBERT LEA     SNOW      36  36 100 E7        29.42F VSB 1/4
$$
MNZ078>079-086>088-094>096-211000-
   Southeast Minnesota

CITY           SKY/WX    TMP DP  RH WIND       PRES   REMARKS
ROCHESTER      FOG       34  34 100 E8        29.46F VSB 1/4 WCI  27
RED WING       CLOUDY    36  34  93 E6        29.49F FOG
STANTON        DRIZZLE   35  34  94 E5        29.46F WCI  31
DODGE CENTER   FOG       34  34 100 CALM      29.45F VSB 1/4
WINONA         FOG       34  34 100 CALM      29.51F VSB 1
AUSTIN         SNOW      34  34 100 E9        29.43F VSB 1/2 WCI  26
PRESTON        FOG       33  32  97 E7        29.47F VSB 1/4 WCI  27
$$
ABBREVIATIONS USED IN REMARKS
   TC - TEMPERATURES IN CELSIUS
  WCI - WIND CHILL INDEX
   HX - HEAT INDEX
  VSB - VISIBILITY
$$




USA.gov is the U.S. government's official web portal to all federal, state and local government web resources and services.